Theta_e
340 342 343 344 345 345 345 345 345 345 346 347 347 347 346 345 344 343 343 342 343 343 343 344 345 343 341 340 340 341 342 344 344 345 346 346 345 345 344 341 340 340 341 342 341 341 341 340 341 341 341 341 338 336 334 333 334 336 337 337 337 338 338 337 336 335 335 336 336 336 336 336 336 336 335 335 335 335 333 331 332 334 336 337 337
339 341 343 344 345 345 346 346 345 345 346 346 347 347 347 346 345 344 342 341 342 342 342 343 344 343 342 341 340 339 339 340 342 344 345 346 346 345 344 344 342 341 340 341 341 341 341 341 341 341 341 341 340 339 338 336 335 335 336 336 336 336 336 336 336 335 334 335 335 334 335 335 336 336 336 336 336 336 335 333 332 332 333 335 336
339 342 344 344 345 346 346 346 346 345 345 346 346 346 346 346 347 346 344 342 341 341 341 343 344 343 343 342 341 340 338 337 338 343 345 346 346 346 344 345 344 342 340 339 340 341 342 341 341 341 341 342 341 341 340 339 338 337 337 336 336 336 335 335 334 334 333 333 333 333 333 333 334 335 335 336 336 336 336 335 333 332 332 333 333
340 343 345 346 345 346 346 345 345 345 345 346 346 346 346 346 346 345 344 342 341 340 340 341 342 342 341 341 341 340 337 335 337 341 344 346 346 345 345 345 345 343 341 340 339 340 341 341 341 341 342 342 342 341 341 341 340 340 339 338 337 337 337 336 334 334 334 334 334 333 333 333 332 333 334 335 335 335 335 334 333 332 332 332 332
341 343 345 346 346 346 345 344 344 344 344 346 346 347 346 345 344 343 342 342 341 340 340 341 341 341 339 339 339 338 336 335 338 340 342 345 345 346 345 344 345 344 342 341 340 340 340 341 341 342 342 342 342 341 341 342 341 341 341 340 339 338 338 338 337 335 335 334 334 334 334 333 333 332 332 333 333 333 333 333 333 332 331 332 332
342 345 346 347 346 345 344 343 344 343 344 345 346 347 346 345 343 342 342 341 341 340 341 340 340 339 338 337 337 336 335 335 337 339 340 342 344 345 345 345 345 345 343 343 343 341 340 341 341 341 342 342 342 341 341 341 341 341 341 341 340 340 339 339 339 337 336 336 336 336 335 335 335 334 334 334 334 334 334 334 334 334 333 332 331
343 346 346 346 346 345 344 344 344 343 343 344 346 347 347 345 343 342 342 340 340 340 340 340 339 337 336 335 333 333 333 334 334 334 336 339 341 344 345 345 345 345 344 344 343 342 341 341 341 341 341 341 341 341 341 341 341 341 341 341 341 341 340 339 339 339 338 338 337 337 336 336 336 336 336 335 335 336 336 336 336 335 335 334 333
342 345 346 345 345 344 343 343 344 343 342 343 345 347 347 344 343 342 341 339 338 340 341 340 339 335 334 334 332 332 333 333 331 330 332 335 338 342 343 344 345 344 343 343 343 342 341 340 340 341 340 340 341 341 341 340 341 341 341 341 342 342 341 339 340 340 339 339 339 338 338 338 337 336 336 336 336 336 337 337 337 336 336 335 336
341 343 344 344 343 343 343 343 343 343 342 343 344 346 345 343 342 340 340 338 335 338 340 340 340 335 334 335 334 335 335 334 333 331 332 333 336 339 339 342 344 343 343 342 343 343 342 340 340 341 340 340 341 341 341 341 341 341 341 341 341 342 341 340 340 340 340 340 339 339 339 339 339 338 338 337 337 337 338 338 336 337 336 336 337
341 342 342 343 343 342 343 343 344 343 342 342 343 345 344 342 341 339 340 337 330 333 337 339 338 335 334 335 335 338 337 336 336 334 334 333 335 338 338 340 342 342 342 342 342 342 342 341 340 341 341 341 342 342 341 341 341 340 341 341 341 341 341 340 340 340 340 340 340 340 340 340 340 340 340 339 339 338 338 338 337 337 337 337 337
341 342 342 343 344 343 344 343 344 343 342 342 343 345 345 342 340 338 338 337 329 326 329 333 335 334 333 333 336 339 338 338 338 336 335 335 335 337 338 341 342 342 342 341 341 341 342 342 341 342 342 341 341 342 341 341 341 340 340 340 340 340 340 340 340 340 340 340 341 341 341 340 340 340 340 340 340 339 338 338 338 338 337 337 337
343 343 344 345 345 345 345 344 344 343 341 342 344 345 345 342 340 338 338 338 332 324 324 328 332 333 332 333 337 338 338 339 338 336 335 335 336 338 340 341 341 341 341 341 342 342 342 342 341 340 341 340 340 340 340 340 339 339 339 339 339 340 340 341 340 340 340 341 341 341 341 341 341 341 340 340 340 340 339 338 338 338 338 338 337
345 345 346 346 346 345 345 344 344 343 342 343 344 344 343 343 341 338 338 338 333 326 323 323 329 333 333 334 337 337 337 338 338 336 335 336 337 339 339 339 337 336 337 339 340 340 340 340 339 339 339 338 338 338 338 338 338 337 337 337 337 338 340 340 340 340 341 341 340 341 341 341 340 340 341 341 340 340 340 339 339 339 339 339 338
345 346 346 346 345 344 344 344 344 344 344 344 344 344 342 343 341 338 338 337 331 328 325 326 332 336 337 337 338 338 336 335 336 337 336 337 338 337 335 335 334 332 332 333 334 333 333 334 335 337 337 336 334 335 337 337 336 335 334 333 333 334 335 337 338 338 339 339 338 339 340 340 340 340 341 341 340 340 340 339 339 339 339 339 339
346 346 346 346 345 344 344 345 345 345 344 345 345 344 343 344 342 339 338 334 329 328 330 333 336 337 338 339 340 340 337 335 336 337 336 337 337 336 333 333 333 330 330 331 329 326 325 326 328 329 332 332 331 332 333 334 334 331 328 326 325 324 325 327 329 328 328 328 328 329 331 332 334 336 337 339 339 340 340 340 340 339 339 339 339
346 346 347 346 346 346 346 346 347 346 346 346 346 344 344 345 342 340 338 334 328 327 332 335 336 337 339 340 341 341 340 338 338 336 336 337 336 334 333 332 331 330 330 329 325 324 323 323 323 322 323 325 326 329 330 330 328 324 321 319 318 318 318 318 319 319 318 318 318 319 319 320 322 323 325 328 330 333 336 338 339 340 340 340 339
346 346 347 348 348 348 347 348 348 347 347 347 346 345 345 345 343 341 338 332 326 326 331 335 335 337 339 339 340 340 341 340 339 337 336 338 337 334 332 331 331 329 329 327 323 325 327 326 325 322 321 320 320 322 323 322 320 318 318 317 318 318 318 318 318 318 318 318 318 318 318 317 317 317 317 318 319 320 323 326 329 332 335 337 339
345 346 347 348 348 349 349 350 350 348 347 347 347 345 345 345 343 341 337 328 323 324 330 334 335 335 336 337 338 339 339 338 339 339 337 337 336 334 332 330 330 328 328 327 326 328 329 328 326 325 323 319 318 318 318 318 318 318 319 318 318 318 317 318 318 318 318 318 319 318 318 318 318 318 318 317 317 317 316 316 317 319 321 325 329
343 345 347 348 348 349 350 351 350 348 347 347 346 346 346 345 342 341 337 326 320 324 331 334 334 333 333 334 336 337 337 337 337 339 339 337 336 334 332 330 330 328 328 329 328 328 329 329 327 326 323 321 321 322 322 322 321 321 321 320 320 320 319 319 319 318 318 317 317 317 317 317 317 317 317 317 317 317 317 317 316 316 315 316 317
343 345 346 347 348 349 350 351 350 347 346 345 346 346 346 346 343 341 337 327 321 325 331 334 334 333 331 330 331 333 336 337 337 338 339 339 337 335 333 331 331 330 328 328 328 328 329 329 328 327 325 325 326 326 326 325 324 323 324 324 324 324 323 323 322 322 320 319 319 319 319 319 318 318 317 317 317 317 317 317 317 316 316 316 315
343 344 346 346 347 349 349 350 349 347 346 345 345 346 346 345 343 342 338 328 323 325 330 333 335 335 332 329 328 329 333 336 338 337 338 339 339 338 336 333 332 331 329 329 328 329 329 329 329 329 327 327 327 327 327 326 326 326 327 327 327 327 327 326 325 325 323 322 321 321 321 320 320 320 319 318 318 317 317 317 317 316 316 316 315
341 343 344 345 346 348 348 349 348 348 346 345 345 345 345 345 343 342 339 329 323 325 328 332 335 336 334 331 329 329 331 334 337 338 337 338 339 338 338 336 334 332 331 330 329 329 329 329 329 330 329 328 327 327 327 327 327 328 328 328 328 328 328 328 326 325 325 324 323 322 322 321 321 321 320 320 319 319 319 318 318 317 317 316 316
340 340 342 343 344 345 346 347 348 347 346 344 344 344 344 345 343 341 337 328 323 325 327 330 334 336 335 332 331 330 331 332 335 337 337 337 337 338 338 337 336 335 332 331 330 329 329 329 329 330 330 329 328 327 327 327 328 328 328 329 329 329 329 329 328 326 325 325 325 324 324 323 322 321 321 320 320 320 321 320 319 319 318 317 316
338 338 340 341 342 343 344 345 346 346 345 343 343 343 344 344 343 341 336 327 321 323 325 328 331 334 334 333 332 331 329 330 333 335 337 338 337 338 338 336 335 335 333 331 331 330 329 330 329 330 330 330 329 328 328 328 328 329 329 329 329 329 329 329 329 327 326 326 326 326 325 325 324 323 322 321 321 321 321 321 321 321 320 319 319
338 338 338 339 340 341 342 342 343 344 345 344 343 343 343 343 342 341 336 326 320 321 323 325 329 331 333 333 334 333 330 329 329 331 333 335 336 337 337 336 335 335 334 333 332 331 330 330 330 330 330 331 331 330 329 329 329 329 329 329 329 329 329 329 329 328 327 326 326 326 326 326 325 324 323 322 322 321 321 321 321 321 321 321 321
337 337 338 339 339 340 341 341 341 343 345 345 345 344 343 342 342 341 337 328 320 319 321 324 327 329 330 331 333 334 332 331 330 329 328 329 332 335 335 334 333 333 333 333 333 332 331 331 331 330 330 330 332 331 330 330 330 330 329 329 329 329 329 329 329 328 326 325 325 326 326 326 326 325 323 322 322 322 321 321 321 321 321 321 322
337 337 338 339 339 340 341 341 341 342 344 345 345 345 344 343 341 341 339 330 320 318 320 323 325 326 328 330 331 331 331 331 331 331 328 326 328 330 330 331 332 333 332 332 332 332 332 331 331 330 330 330 331 330 329 329 329 329 329 329 329 329 328 327 327 327 326 324 324 325 326 327 327 326 324 323 322 322 321 321 321 321 321 322 322
336 336 337 337 338 339 340 341 341 342 343 344 344 344 344 343 341 340 338 330 321 318 319 321 323 325 327 329 329 329 329 330 330 330 329 327 326 327 328 331 334 335 335 334 333 333 331 329 330 329 328 329 329 329 328 328 328 329 329 329 329 328 328 327 325 325 324 324 324 324 325 326 326 327 326 325 323 322 322 322 322 322 322 322 322
335 336 336 336 336 337 338 340 342 342 343 344 344 343 344 344 342 340 339 333 325 319 318 320 321 323 326 326 326 327 328 329 330 329 328 327 326 326 327 330 333 335 336 336 335 333 330 328 329 329 327 327 328 328 328 328 328 329 328 328 327 327 326 326 325 324 324 324 325 325 325 326 326 326 326 326 325 324 323 323 323 323 322 322 322
335 335 336 335 335 335 336 338 341 343 343 343 343 343 343 343 342 341 340 337 331 323 318 318 320 322 325 325 324 324 326 328 329 329 328 327 327 326 328 330 331 332 333 333 334 331 328 328 329 328 328 328 328 328 328 328 328 327 327 326 325 325 325 324 324 324 324 325 325 326 326 326 326 326 326 326 326 325 324 323 323 324 324 324 323
335 335 335 336 335 335 335 336 339 342 343 343 343 342 342 343 342 341 341 339 336 328 320 318 319 321 324 325 324 323 324 326 329 329 328 328 328 328 329 331 331 330 329 330 332 332 328 328 328 327 328 329 329 329 329 328 327 326 325 324 324 324 324 324 324 324 325 325 326 326 326 326 326 325 325 325 325 325 325 324 323 323 324 324 324
335 335 335 336 336 336 336 336 338 340 342 342 342 342 342 342 342 341 341 340 339 335 327 321 318 320 323 325 326 325 323 324 327 329 328 328 328 329 330 331 330 329 329 328 330 332 328 326 327 327 327 329 329 328 328 327 326 324 324 324 324 324 324 324 324 324 325 325 325 326 326 326 325 325 325 325 325 325 325 325 324 324 323 323 324
335 334 334 335 336 337 337 337 338 339 340 341 342 342 341 341 341 341 341 341 341 339 336 329 321 319 321 324 326 327 326 324 325 327 329 328 329 329 330 330 329 328 328 327 328 329 328 326 325 326 326 326 327 327 326 325 325 325 325 325 325 325 324 324 324 325 325 325 325 325 325 325 325 325 325 325 325 325 325 326 325 325 324 324 323
336 335 334 334 335 336 337 338 338 338 339 340 341 342 342 341 341 341 340 340 340 341 340 336 329 321 318 321 324 326 327 326 324 324 327 328 329 329 329 330 329 327 327 327 327 327 327 325 324 325 325 325 325 325 325 325 326 326 326 326 326 326 326 326 326 326 326 325 325 325 325 324 324 324 325 325 325 325 325 325 325 325 325 324 324
339 336 335 334 334 334 335 337 338 338 338 339 340 341 342 342 342 341 340 340 340 340 340 340 337 330 322 318 319 323 326 327 325 323 323 325 326 329 329 329 329 327 326 327 327 326 325 324 323 324 326 326 325 325 326 326 326 326 326 327 327 327 327 327 327 327 327 327 326 326 325 325 324 324 324 324 325 325 325 325 325 325 325 325 325
342 339 337 336 335 334 334 335 336 337 338 338 338 339 340 341 342 342 341 340 340 340 340 340 340 338 331 323 318 319 322 325 325 324 323 322 322 326 329 329 328 328 327 327 327 326 324 323 323 324 325 326 326 326 327 327 327 327 328 328 329 329 329 329 329 329 329 329 328 328 328 328 327 326 325 325 325 325 325 325 325 325 325 325 325
344 342 340 339 337 336 334 333 334 336 337 337 338 338 339 340 342 343 343 341 340 340 340 340 340 340 338 332 324 319 319 321 322 323 323 322 321 323 326 329 328 328 328 328 327 326 324 323 323 324 324 325 325 326 328 329 330 330 331 331 331 331 330 330 331 331 331 330 330 330 330 330 329 329 329 328 327 327 327 327 326 326 326 326 326
345 344 343 342 340 337 335 333 333 334 335 336 337 338 338 339 341 342 343 343 342 341 340 339 339 340 340 338 333 326 320 318 318 319 321 322 322 322 324 326 327 327 328 329 329 327 326 324 323 324 325 325 326 328 329 330 331 333 333 332 332 331 330 330 331 332 331 330 329 329 328 328 328 328 329 330 330 330 329 329 329 328 328 327 327
345 345 345 344 342 340 337 334 333 333 334 335 336 337 337 338 339 341 343 343 343 342 341 339 339 339 340 340 339 335 328 322 319 317 318 321 322 322 323 325 326 326 326 327 329 329 328 326 324 324 326 328 329 331 331 332 332 334 334 332 332 330 329 327 328 329 328 327 326 326 326 326 326 326 326 327 329 329 329 329 329 329 329 329 328
346 345 346 346 345 343 340 336 334 333 333 334 335 335 337 337 338 339 341 343 344 343 342 340 339 339 340 340 340 339 336 331 326 322 318 319 321 322 323 324 325 326 325 325 328 330 329 328 327 326 327 329 331 333 333 334 334 335 335 333 331 328 327 325 325 326 326 325 325 325 325 324 324 324 324 325 325 326 326 326 327 328 329 329 329
346 346 346 346 346 346 345 341 337 335 334 333 334 335 336 336 337 338 339 341 343 344 343 341 340 339 339 340 340 340 340 338 336 332 324 319 320 322 322 323 324 325 325 324 327 330 330 329 328 327 327 329 331 333 334 335 335 336 335 333 329 327 326 325 325 326 326 325 325 324 323 321 321 321 322 323 323 323 324 325 325 326 327 328 328
346 346 346 347 347 347 347 346 342 339 336 334 334 334 335 336 336 337 338 339 341 343 343 342 341 339 339 340 340 340 341 341 341 341 333 322 318 320 321 321 323 324 324 324 326 329 330 329 328 328 329 330 332 334 335 336 336 335 335 332 328 327 327 326 326 326 326 324 324 323 321 318 319 320 321 321 322 323 323 325 325 325 326 326 327
346 346 346 347 347 347 348 348 346 343 338 335 334 334 334 335 336 336 337 338 339 342 343 342 341 339 338 339 340 341 342 342 343 344 339 328 320 318 320 321 321 323 324 324 326 329 330 330 329 330 331 331 334 335 336 336 335 334 333 330 327 327 328 328 328 329 327 324 322 322 322 320 320 320 320 320 322 323 323 324 324 324 325 325 325
346 346 346 347 347 348 348 349 348 346 341 338 337 336 335 335 336 336 336 337 338 340 342 342 341 340 338 339 340 341 342 344 344 344 343 335 324 319 319 321 321 323 323 323 326 329 331 331 332 333 333 334 335 336 336 334 333 332 330 328 327 328 328 329 330 331 329 323 320 323 325 325 323 322 321 321 322 323 323 323 323 324 324 324 324
347 347 347 347 347 348 348 349 349 348 344 341 339 338 337 336 336 337 336 336 337 339 340 341 341 340 339 339 340 341 343 345 345 345 345 341 329 321 321 322 322 323 323 324 325 327 330 333 333 334 335 335 336 335 334 333 332 331 329 327 327 328 329 329 330 329 327 322 323 326 327 326 325 325 324 323 323 323 322 322 323 323 323 323 323
347 347 347 347 348 348 348 349 350 349 346 343 341 340 339 337 337 338 338 337 336 338 339 340 341 340 339 338 340 341 344 346 347 346 346 344 335 324 322 324 324 323 324 325 326 327 329 332 333 333 335 336 336 334 333 333 332 330 328 327 327 329 330 329 327 325 323 322 325 327 327 326 326 325 325 324 323 322 321 321 322 322 322 321 321
347 347 347 347 348 348 349 349 350 350 349 345 342 340 339 338 337 338 339 338 337 337 338 339 341 341 339 340 341 343 345 347 348 347 347 347 340 328 322 324 326 324 323 325 326 327 329 331 333 335 336 336 335 333 331 331 330 328 327 327 328 329 329 328 326 325 325 326 326 327 327 326 326 325 325 324 322 320 319 319 318 318 318 317 316
347 347 347 348 348 348 349 349 350 350 351 347 343 341 340 339 339 339 340 339 338 337 338 339 341 341 341 342 343 344 347 348 349 349 347 347 344 334 325 325 327 325 325 327 328 327 329 333 336 336 336 335 333 330 328 327 326 326 326 327 329 330 329 329 328 328 327 327 326 326 326 326 325 324 324 322 320 316 315 314 313 312 311 310 309
347 348 348 348 348 349 349 350 350 350 351 350 346 343 341 340 340 340 340 340 338 338 339 339 342 343 342 343 344 346 348 349 349 350 348 347 346 339 329 326 327 327 328 329 330 331 332 335 337 337 336 334 331 328 326 325 325 325 326 328 331 331 330 328 328 327 327 326 326 326 325 325 324 323 322 320 316 313 313 312 310 308 306 305 304
347 348 348 348 348 349 349 349 350 350 351 351 347 344 341 341 341 340 338 339 338 338 339 340 342 344 344 344 345 347 349 350 350 350 348 347 346 340 331 327 328 330 329 329 332 334 335 336 337 337 335 332 328 326 325 325 325 324 326 330 331 330 329 328 327 327 326 326 325 324 323 321 321 320 320 318 316 314 314 313 309 305 303 302 302
349 349 349 349 349 349 349 350 350 350 352 352 350 347 345 342 342 340 339 340 340 339 339 340 343 344 345 345 346 348 350 350 350 349 348 347 346 341 332 327 330 333 331 329 332 335 336 336 337 335 333 329 326 325 325 324 324 325 328 329 328 327 327 327 326 326 325 324 324 322 319 319 319 319 319 319 318 316 312 310 307 304 302 302 302
Wind_Speed
7 7 6 5 5 5 4 3 2 1 1 1 1 1 2 3 3 4 5 5 6 7 6 5 4 4 3 2 1 1 2 4 5 5 5 4 4 4 3 1 0 0 1 3 4 4 4 3 4 5 5 5 5 4 4 5 5 6 6 6 5 5 5 5 5 5 5 4 4 4 4 4 4 4 4 4 4 4 5 4 3 3 4 5 6
7 7 6 6 5 5 4 3 2 1 0 1 1 2 2 3 4 5 5 6 5 6 6 5 5 5 3 2 1 1 2 3 4 5 5 5 5 6 5 2 1 1 1 3 3 3 4 4 4 5 5 5 6 6 5 5 5 6 6 6 6 6 6 6 6 6 6 6 6 5 5 4 4 4 5 5 5 5 4 4 4 4 5 5 6
8 8 6 6 6 5 4 3 2 1 1 2 3 3 3 4 5 5 6 6 5 4 5 6 6 5 5 5 4 3 4 4 4 5 5 5 6 6 6 4 2 1 2 3 2 3 4 4 5 5 5 5 6 6 5 6 6 7 7 7 7 7 7 8 8 7 7 7 7 6 5 5 5 5 5 5 6 6 5 5 5 5 5 5 6
9 9 7 7 6 6 4 2 1 2 2 3 4 4 5 5 5 6 6 6 5 4 4 5 6 5 5 6 6 5 5 5 4 4 4 4 5 6 6 5 4 2 2 3 2 3 3 3 4 5 5 5 6 6 6 7 9 8 8 8 7 7 8 8 7 7 7 8 8 7 7 6 5 6 6 6 6 6 6 6 6 6 6 6 6
10 9 9 8 7 6 4 2 1 2 3 4 5 6 6 6 6 6 6 6 5 5 4 4 5 5 4 5 6 7 7 6 4 3 3 4 5 5 6 5 4 4 3 3 3 3 3 3 3 4 5 5 6 7 7 8 9 9 9 9 8 8 8 8 8 8 7 8 8 8 8 7 7 7 7 7 7 7 6 6 7 6 6 7 7
10 10 9 9 8 6 3 2 2 3 3 4 5 6 7 7 6 6 6 6 6 6 4 4 4 4 5 6 7 8 8 6 4 3 2 4 3 3 4 4 4 4 3 4 4 3 3 3 3 4 4 5 6 6 6 7 7 8 9 9 9 9 9 10 11 10 8 9 9 9 9 9 9 8 8 8 8 8 8 8 8 7 7 7 7
11 10 10 9 8 6 4 3 3 4 4 5 6 7 7 7 7 6 6 5 6 6 6 5 4 4 5 6 6 7 7 7 5 4 3 4 5 2 4 4 4 4 3 4 4 3 3 3 3 4 4 5 5 5 5 5 6 7 7 7 8 9 10 11 12 11 9 10 11 11 11 11 10 10 10 10 10 10 9 9 9 8 8 8 8
12 12 11 9 8 6 4 4 4 5 6 6 6 7 7 7 7 7 6 6 6 7 7 6 5 4 4 4 4 3 5 6 6 5 4 3 4 3 2 4 3 3 4 4 4 4 3 3 4 4 4 5 5 5 5 6 5 6 6 6 7 7 9 11 11 11 10 11 11 12 12 12 11 12 12 11 11 10 9 10 11 10 9 10 11
13 13 12 10 8 7 6 5 6 7 7 7 7 8 7 8 8 7 6 7 6 6 8 8 7 5 4 3 3 2 2 2 4 4 3 2 2 3 3 3 3 3 4 4 4 4 3 3 4 4 4 5 5 5 6 6 6 6 6 6 5 5 7 8 9 9 10 10 10 11 12 12 12 12 13 13 12 12 11 11 12 11 11 12 12
13 13 13 11 9 8 7 7 7 8 8 8 8 8 7 7 8 7 6 7 7 5 6 8 8 6 4 5 4 4 3 2 2 3 4 3 1 2 4 3 3 3 3 3 3 2 2 3 4 5 5 5 4 4 4 5 6 6 6 6 5 5 6 7 7 7 8 9 9 10 11 11 11 12 13 13 13 13 12 12 13 13 13 13 13
14 14 13 12 10 8 8 7 8 8 9 8 8 8 7 7 7 6 6 7 8 6 6 7 7 6 6 6 6 5 5 4 3 2 3 3 1 1 2 1 1 2 2 2 1 1 1 3 4 4 5 5 5 4 3 3 5 5 5 5 5 5 6 6 6 7 7 7 7 8 9 9 10 11 12 13 13 12 13 13 14 14 13 14 14
14 14 13 12 10 9 8 8 8 9 9 8 8 8 7 7 7 7 7 8 8 6 5 6 7 7 7 7 7 7 6 6 6 3 2 2 2 1 1 2 1 1 2 1 0 0 1 2 3 3 5 5 4 5 4 4 4 4 5 5 5 5 5 5 5 5 6 6 7 7 7 7 8 9 11 11 11 11 12 13 13 13 13 14 15
14 14 13 11 10 9 9 8 9 9 8 7 7 6 6 7 7 7 8 8 8 5 2 5 7 7 7 7 7 7 7 7 6 4 4 3 2 3 3 2 2 2 2 1 1 1 1 1 2 2 3 3 3 4 5 5 4 3 3 4 4 4 3 3 3 3 4 5 6 6 5 6 6 7 8 9 9 9 10 11 12 12 12 13 13
15 14 13 12 10 9 9 8 9 9 8 7 7 6 6 7 7 8 8 8 7 4 2 4 5 6 6 7 7 6 6 6 5 5 5 2 3 5 4 3 3 2 2 2 2 2 1 1 1 1 2 2 2 3 4 4 4 4 4 4 4 3 3 3 2 2 3 3 4 5 5 5 5 5 6 6 7 8 9 10 11 11 11 12 12
15 15 14 12 11 10 9 9 9 8 7 7 7 6 7 7 7 7 8 8 7 5 4 5 5 5 6 5 4 4 4 4 6 6 5 3 4 5 4 4 3 3 2 2 2 3 4 4 3 2 0 1 1 2 3 3 4 4 5 4 4 4 3 3 3 3 3 4 4 4 5 5 5 4 4 4 5 6 7 8 9 9 10 11 11
17 16 15 13 12 11 11 10 9 8 7 7 7 7 7 7 7 7 8 8 7 6 7 7 6 6 6 5 4 4 3 4 6 7 5 4 5 5 4 3 3 3 3 3 5 7 8 7 6 5 4 2 1 1 2 2 2 3 4 5 5 5 5 4 4 4 4 4 4 4 5 5 4 4 4 4 4 5 6 6 7 8 8 9 10
18 17 16 14 13 12 12 11 10 8 7 7 7 7 7 7 7 8 8 7 6 6 8 8 8 8 7 6 5 4 3 4 5 7 7 6 6 5 4 3 3 4 4 5 7 8 8 7 6 5 5 4 3 3 2 1 2 3 4 5 5 5 4 4 3 3 3 4 4 5 5 5 5 4 5 4 4 5 5 5 6 7 7 7 8
20 19 17 16 15 14 13 12 10 9 8 8 8 8 7 8 7 8 8 7 6 7 8 8 9 10 9 8 6 5 4 5 5 6 8 8 7 6 5 4 3 5 5 5 6 6 6 6 6 5 6 5 5 5 4 3 3 3 4 4 4 4 4 3 3 3 3 3 4 5 5 6 6 5 5 5 5 5 5 5 6 6 7 7 7
21 20 19 18 16 15 14 13 11 10 9 9 8 8 8 8 8 8 8 7 6 7 8 8 9 10 11 10 10 9 6 6 7 6 7 8 9 7 6 5 4 5 5 4 4 3 3 5 5 5 6 6 6 5 4 3 3 3 4 4 4 4 4 4 4 4 3 4 4 5 5 6 6 6 6 6 6 6 6 6 6 6 6 6 6
21 21 20 19 18 16 15 14 12 11 10 10 9 9 9 9 9 9 8 7 6 7 8 9 9 9 10 10 11 11 9 8 8 8 7 7 9 9 8 7 6 5 5 5 4 3 1 2 4 4 5 4 4 4 4 3 3 3 4 4 4 4 5 5 5 5 5 5 5 6 6 6 6 6 6 6 6 6 6 7 7 7 7 7 6
22 22 21 21 19 17 16 15 14 12 11 10 10 9 9 10 10 9 9 7 6 7 9 9 8 9 8 8 8 10 11 10 9 10 9 8 8 9 9 8 8 7 6 5 5 4 3 1 2 3 3 3 3 4 4 4 3 3 3 4 4 4 5 5 6 6 6 6 7 7 7 7 7 7 7 7 6 6 7 7 7 8 8 8 7
23 23 22 21 20 19 18 16 15 13 12 11 11 10 10 10 10 9 9 8 7 7 8 9 9 9 8 7 6 6 8 10 10 10 11 10 9 8 8 8 8 9 8 7 7 5 5 4 2 1 2 2 3 3 3 3 2 1 2 2 3 4 5 6 7 7 7 7 7 7 7 8 8 8 8 7 7 7 7 8 8 8 8 8 8
24 24 24 22 21 20 19 17 16 14 13 13 12 11 10 11 10 10 9 8 7 7 8 9 9 10 9 7 6 5 6 7 9 10 12 12 11 8 8 8 8 9 10 9 8 7 7 6 4 2 1 2 3 3 3 2 2 2 2 3 3 4 5 7 8 8 8 7 7 7 7 8 8 8 9 9 9 9 8 8 8 8 8 8 8
25 25 25 24 23 22 20 19 17 15 14 13 12 11 11 12 11 11 10 9 8 8 9 10 10 10 9 8 7 6 7 7 8 10 11 12 12 10 9 10 10 10 11 10 10 9 8 8 7 6 4 4 4 4 4 4 4 4 4 5 5 6 6 7 9 9 9 8 8 8 8 8 8 8 9 9 10 10 10 10 10 10 9 9 9
26 26 26 25 25 23 21 20 18 16 15 14 13 13 13 13 12 11 10 9 9 9 9 9 10 10 9 9 8 7 7 7 7 9 11 12 12 12 12 12 11 10 11 11 11 11 10 9 9 9 8 6 6 7 7 7 7 6 6 7 7 7 7 7 9 10 10 9 8 8 8 8 8 8 9 10 11 11 12 12 12 12 11 11 11
26 26 25 25 24 23 22 20 19 18 17 16 15 14 14 14 13 12 11 10 10 10 10 10 10 10 9 9 9 8 8 8 7 7 8 10 11 12 12 12 10 10 11 11 11 11 10 10 10 10 10 9 9 9 9 9 9 9 9 10 10 9 9 9 9 10 10 9 9 8 8 8 8 9 10 10 11 12 13 13 13 13 13 12 12
26 25 24 23 23 22 22 21 20 19 19 18 17 16 16 15 14 13 12 11 11 11 11 11 11 11 10 9 9 9 9 9 8 7 8 8 9 10 10 9 9 10 11 11 11 11 11 11 11 11 11 11 11 11 10 10 10 10 11 11 11 11 11 12 11 11 10 10 9 9 9 9 9 10 10 10 11 11 11 11 12 12 12 12 12
27 26 24 24 23 22 22 21 20 21 20 19 18 17 17 16 15 14 13 12 12 12 12 12 12 12 11 11 10 10 9 9 8 8 8 9 9 9 9 9 8 8 9 10 11 10 10 11 10 10 10 11 11 11 10 10 9 9 10 11 11 11 12 13 13 12 11 10 10 10 10 11 11 11 10 10 10 10 10 10 10 10 10 10 10
27 27 26 25 24 23 22 21 21 22 21 20 20 19 18 17 16 15 14 12 12 13 13 13 13 13 12 12 11 11 10 10 9 8 8 9 9 9 9 10 10 8 7 8 9 9 9 9 8 9 9 9 9 10 10 10 9 9 10 11 11 11 11 13 13 12 11 11 11 11 11 11 12 12 12 12 11 11 10 10 9 9 9 9 9
27 27 27 27 26 25 24 22 22 22 22 21 21 20 19 19 18 17 15 14 13 14 14 14 13 13 13 13 12 12 12 11 10 9 9 9 10 10 9 9 10 10 9 9 9 9 8 8 7 8 9 8 9 9 10 10 10 10 11 12 12 12 12 12 12 12 11 11 11 11 12 12 12 12 13 13 13 13 13 12 11 10 9 9 10
28 27 27 27 27 27 26 25 24 24 23 23 22 21 21 20 20 19 17 16 15 15 15 15 15 14 13 13 13 13 13 12 11 11 10 10 10 11 10 10 10 10 10 10 9 9 8 7 8 8 8 8 9 9 10 10 10 11 11 12 12 12 12 12 12 11 11 11 11 11 12 12 13 13 13 13 14 14 14 14 13 13 12 12 12
30 28 28 28 27 27 27 26 26 26 25 24 23 23 22 22 21 20 19 17 16 16 15 16 16 15 15 15 14 14 14 14 13 12 12 11 11 11 11 11 11 11 10 10 10 10 10 9 9 9 8 9 10 10 11 11 11 11 11 11 11 11 12 12 12 12 11 12 11 11 12 12 13 14 14 14 14 14 15 15 15 15 15 15 15
32 31 30 29 29 28 28 28 28 28 27 26 25 24 24 23 23 22 21 19 18 17 16 16 17 17 17 16 16 15 15 15 15 14 13 13 12 13 13 13 13 13 12 11 12 12 12 10 9 9 10 10 11 11 11 12 12 12 11 11 11 11 12 13 13 13 12 12 12 13 14 14 15 15 15 15 15 15 16 16 16 16 16 17 17
33 33 32 32 31 30 30 30 30 29 29 28 27 26 26 25 25 24 23 22 20 19 18 17 17 17 18 18 18 17 17 16 16 16 15 15 15 15 15 14 14 14 13 13 13 13 13 11 9 9 10 10 10 10 11 12 12 12 12 12 12 12 12 13 14 14 13 13 14 15 16 17 17 17 17 17 17 17 17 17 17 17 18 18 19
34 35 34 34 34 33 32 32 31 31 31 30 29 29 28 27 26 26 25 23 22 21 20 18 17 17 18 19 19 19 18 18 18 17 17 17 17 17 17 16 15 14 14 14 14 13 13 12 11 9 9 10 10 10 10 11 12 12 12 12 12 12 12 13 14 15 15 15 16 18 19 20 20 20 20 19 19 19 19 19 19 19 19 20 20
35 36 35 36 36 36 35 35 34 34 33 32 31 30 30 29 28 27 26 24 23 22 21 20 18 18 19 20 20 20 20 20 19 19 19 19 18 18 18 18 17 16 15 15 14 14 13 14 12 10 9 10 10 10 10 11 11 11 11 10 10 10 11 12 13 14 14 15 16 17 19 19 20 20 21 22 22 22 22 22 22 22 22 21 22
36 36 36 37 38 38 38 38 37 36 35 34 33 32 31 31 29 28 27 25 24 23 22 21 20 20 19 20 20 20 20 21 21 21 21 20 19 19 19 19 18 17 16 16 15 15 14 15 14 12 11 11 10 9 10 10 10 10 10 9 9 10 11 11 12 13 13 14 16 17 18 19 19 20 21 22 23 24 24 24 24 24 23 23 24
37 36 37 38 39 40 39 39 39 38 37 37 36 34 33 32 31 29 28 27 26 25 24 23 23 22 21 21 20 21 21 22 22 22 22 21 20 20 20 19 18 18 18 17 17 16 15 15 14 13 12 12 11 11 10 10 10 10 10 11 11 11 12 13 14 15 15 16 18 19 20 20 20 20 21 22 23 24 24 25 25 26 26 25 25
38 38 37 38 40 40 40 40 40 39 39 39 38 37 36 34 33 31 30 29 28 27 26 25 24 24 23 22 22 22 22 22 22 22 22 22 21 20 20 19 18 19 19 19 18 17 16 16 15 14 13 12 13 12 11 11 11 11 11 13 14 13 13 15 16 17 18 19 19 19 19 18 19 20 21 22 23 23 23 23 24 25 26 25 25
40 39 38 38 39 40 40 41 42 41 40 41 41 40 38 37 35 33 32 31 30 29 27 26 26 26 25 25 24 24 23 23 22 22 22 21 21 21 20 19 19 19 20 21 20 19 17 16 16 16 15 14 14 13 12 12 11 12 13 14 15 15 15 16 18 19 19 18 18 18 18 18 19 20 21 22 23 23 23 23 23 23 24 25 25
42 41 40 39 39 40 40 41 43 43 43 43 43 42 40 38 37 35 35 33 32 30 28 27 27 28 27 27 27 26 25 23 21 21 20 20 21 21 21 21 20 20 21 21 22 21 19 18 17 17 16 16 16 14 13 13 12 13 14 15 15 16 17 19 21 21 20 18 18 20 20 21 23 24 23 23 23 24 24 23 22 22 22 23 24
43 42 41 41 42 41 40 41 42 44 45 45 44 43 41 39 37 36 36 35 34 32 30 29 29 29 29 30 29 28 26 24 22 21 19 19 20 21 21 21 21 22 22 22 22 22 21 19 19 18 18 18 17 14 14 14 14 15 15 15 15 15 17 20 21 21 21 20 20 22 23 23 24 25 24 23 23 23 22 21 20 20 21 21 22
43 43 42 43 43 43 42 42 43 45 46 46 45 43 42 40 38 37 37 36 35 34 32 30 30 29 30 31 30 29 27 26 24 22 20 19 20 21 22 22 22 23 23 23 23 23 21 20 19 19 19 18 16 15 15 16 16 16 15 14 15 16 17 19 19 18 20 22 23 24 26 24 23 24 24 24 22 21 21 20 20 20 20 20 21
44 44 44 44 44 44 44 43 44 45 46 46 45 44 42 41 39 38 38 37 36 35 33 31 31 30 31 31 31 30 30 27 25 23 21 20 20 21 22 22 22 23 24 25 24 23 21 20 19 19 19 18 16 15 15 15 16 15 15 15 16 16 17 18 17 14 17 23 25 23 22 20 20 20 22 22 21 20 21 21 21 21 20 19 20
46 46 45 45 45 45 45 45 45 45 45 45 45 43 42 41 40 38 38 38 37 37 35 32 31 31 31 31 31 31 31 28 25 24 23 22 21 21 22 23 23 23 24 25 25 24 22 21 21 21 20 20 18 16 15 15 16 16 16 16 16 17 17 17 16 15 18 24 23 19 16 16 16 17 19 20 21 21 22 22 21 21 20 20 20
47 47 46 46 46 46 46 46 46 45 45 45 45 43 42 41 40 39 38 38 37 38 36 33 32 31 31 32 32 32 31 28 25 25 24 23 23 23 24 24 24 24 24 25 25 24 23 22 22 22 22 20 18 17 15 15 15 16 16 17 17 18 18 18 20 22 22 22 18 15 15 14 14 16 18 18 19 21 23 23 22 21 21 22 23
48 47 46 46 46 46 46 47 47 46 45 45 45 43 42 41 40 38 38 38 38 38 36 34 32 31 32 32 33 33 32 27 24 24 23 23 24 24 24 25 24 24 24 24 24 24 23 23 22 22 21 19 17 16 15 14 15 16 16 17 18 19 20 19 19 19 17 16 15 15 15 14 12 15 16 16 19 22 24 24 24 23 23 24 24
48 47 47 47 48 47 46 47 47 47 46 46 46 44 41 40 39 38 38 38 38 38 36 34 32 31 32 33 34 35 32 27 23 22 22 23 24 24 24 24 24 24 25 24 24 23 22 22 21 20 19 17 16 15 14 14 15 15 16 18 19 19 18 15 13 12 12 13 15 15 15 14 12 13 15 17 21 25 25 24 25 26 26 25 25
50 49 48 48 48 48 48 49 48 48 47 47 47 45 42 40 39 39 38 39 39 38 36 34 32 32 33 34 35 36 32 27 23 22 23 23 23 24 25 24 24 25 25 25 24 22 21 21 20 19 16 15 14 14 14 14 15 15 16 18 17 14 13 12 11 12 11 12 13 14 13 13 13 14 17 20 23 26 25 25 26 26 26 25 23
50 50 49 49 49 49 49 49 49 48 48 48 47 45 42 40 40 40 39 39 39 38 37 35 33 33 34 35 36 36 32 26 23 23 23 23 23 24 26 26 24 24 25 25 24 23 22 21 20 18 16 14 13 13 14 14 15 16 17 17 14 10 11 12 12 12 12 11 12 14 14 14 15 16 19 21 23 24 24 25 28 27 25 24 23
51 51 51 52 51 50 51 51 50 49 48 47 47 47 44 41 41 41 40 40 40 39 38 36 34 34 35 37 37 35 32 26 23 23 23 23 24 25 26 26 24 21 23 25 24 22 21 21 20 17 15 14 14 13 13 14 15 16 17 17 13 10 10 10 10 12 12 11 13 15 14 15 15 16 18 19 20 22 23 25 28 28 25 24 25
Wind_Direction
201 203 200 196 195 193 186 183 192 169 118 66 10 340 323 315 315 308 304 303 299 293 288 282 258 229 215 197 191 245 262 259 258 261 264 260 264 268 264 278 318 284 233 213 217 219 228 225 215 221 221 217 212 206 206 213 225 233 238 236 237 241 239 243 242 241 243 237 238 244 252 260 267 274 280 296 308 326 339 340 322 292 298 309 318
206 204 201 200 197 192 191 193 199 204 238 307 320 319 310 304 307 312 312 309 305 297 287 279 260 246 245 251 270 304 304 289 268 254 253 251 254 259 258 270 290 303 264 236 231 225 230 237 236 234 228 229 227 219 214 218 220 223 232 238 244 250 248 249 249 248 248 246 247 248 250 257 265 272 280 290 297 303 315 329 321 299 295 296 305
208 206 203 201 198 195 199 194 199 254 297 308 307 306 301 301 307 311 310 309 315 307 287 279 268 262 266 272 276 285 308 323 297 261 247 247 251 253 251 255 262 264 254 252 252 237 232 228 237 243 236 231 233 230 223 229 231 223 223 227 235 244 247 249 251 254 256 258 259 260 258 255 259 267 276 282 284 284 288 302 308 303 300 296 297
211 209 205 204 203 202 205 196 218 282 311 310 307 307 305 312 317 310 305 310 319 313 290 278 271 266 268 278 277 277 298 321 309 272 260 254 249 250 250 244 243 244 239 252 257 247 242 228 229 239 240 237 239 240 228 232 239 234 230 227 229 233 238 245 248 252 259 265 269 271 271 265 265 269 272 275 277 282 285 291 295 296 297 296 295
214 212 208 207 208 209 213 211 250 287 304 311 316 315 310 316 319 310 310 314 313 306 285 264 263 262 266 283 282 277 288 300 295 285 298 287 254 242 253 241 228 238 240 250 252 245 249 248 243 241 241 240 243 247 238 238 244 245 243 241 242 241 239 244 246 243 245 255 263 268 270 267 265 263 264 267 270 275 276 281 285 288 292 292 293
216 215 212 211 212 213 218 226 261 281 298 309 309 306 304 311 317 314 315 313 305 294 264 239 248 258 265 279 281 278 282 284 281 283 331 338 308 245 250 245 231 239 244 256 260 252 249 245 245 243 241 236 237 247 249 248 252 254 252 250 252 254 250 246 246 245 244 249 254 257 260 262 263 260 261 264 265 267 269 274 276 279 286 289 291
216 216 215 216 217 218 223 234 263 280 294 299 296 300 301 307 316 318 315 310 299 282 258 242 246 258 264 274 280 274 273 272 271 282 305 346 356 317 258 252 243 247 253 262 268 267 262 255 253 247 240 237 236 247 257 259 261 262 262 259 257 258 256 252 249 248 247 248 251 254 256 258 262 262 261 260 261 264 269 274 274 275 279 281 281
218 219 220 222 224 227 233 244 260 277 288 293 297 303 304 308 316 319 314 309 297 277 263 253 251 263 268 282 288 264 264 264 262 279 290 332 8 4 294 262 252 261 267 266 267 270 272 269 269 265 255 250 248 256 264 268 269 269 272 268 263 262 261 259 257 257 254 251 251 254 257 259 261 263 264 263 262 264 267 269 270 269 269 271 273
221 224 226 228 231 233 237 247 257 269 280 287 295 301 307 313 316 316 308 306 300 279 267 258 257 263 254 267 279 260 262 255 248 260 269 300 1 13 352 302 276 283 281 277 268 264 275 274 269 273 272 265 257 257 262 271 277 278 277 271 267 270 273 270 265 265 264 260 257 257 260 261 261 262 263 264 265 264 264 265 268 267 264 264 268
222 226 229 231 234 236 237 244 254 265 272 279 288 295 307 313 311 308 302 305 303 278 262 255 256 251 231 246 261 261 266 262 257 248 254 274 286 339 344 329 304 299 298 303 285 259 268 277 276 276 278 279 274 267 267 279 285 284 282 282 286 285 284 285 280 276 273 268 266 264 265 264 263 263 263 263 263 263 264 265 266 267 267 267 269
222 225 228 230 233 236 239 245 253 262 265 270 278 283 296 305 303 301 295 302 305 282 253 243 244 236 226 243 253 260 266 268 276 251 244 258 218 305 336 7 335 312 322 334 314 252 242 270 281 284 290 298 301 300 307 313 301 296 298 300 301 297 291 292 291 289 284 277 274 270 268 270 269 265 264 264 263 265 266 266 267 268 269 270 271
219 223 226 229 232 237 242 247 251 257 261 269 278 282 294 303 299 295 291 298 306 295 251 223 222 225 228 239 249 258 263 268 274 248 203 216 181 137 65 66 27 359 357 5 15 245 228 255 270 278 290 301 314 323 331 333 322 316 321 321 315 310 307 301 295 293 291 287 283 277 272 273 272 267 266 265 263 266 268 269 270 271 272 273 273
217 222 226 230 232 237 241 245 251 256 262 269 278 287 298 301 296 295 296 298 303 304 251 206 210 221 228 238 248 256 264 268 264 228 201 210 160 135 116 84 59 48 28 23 34 353 269 260 264 261 271 290 319 328 331 337 345 351 350 352 350 346 348 341 321 304 294 291 290 289 287 283 282 278 276 271 264 264 265 266 268 269 273 274 273
218 222 226 230 232 236 239 245 252 256 262 266 277 294 301 299 295 294 295 295 293 283 223 195 206 215 220 233 249 262 270 260 232 209 210 211 141 136 120 91 82 74 52 34 15 355 344 320 280 241 240 262 305 311 320 333 348 9 23 28 26 18 17 10 352 339 319 312 309 307 307 305 302 294 284 275 268 265 263 265 267 268 269 270 271
220 223 226 228 230 235 239 245 251 254 262 270 280 295 301 298 294 290 291 294 286 251 206 198 206 208 206 216 233 250 262 232 203 200 206 186 148 137 116 97 87 82 71 53 44 46 49 53 59 72 141 264 279 281 298 316 338 5 23 33 43 48 46 40 19 11 6 354 345 335 328 325 325 315 299 287 281 277 272 272 273 270 266 266 269
221 225 226 228 231 236 240 245 251 256 261 268 280 294 299 294 289 287 288 292 282 236 208 206 205 201 199 206 215 224 230 211 198 195 190 174 165 150 120 103 91 89 83 78 75 69 65 62 61 67 74 78 108 217 263 299 344 17 35 44 52 57 60 60 45 32 25 16 9 360 351 349 347 339 329 319 307 296 287 283 279 275 270 267 267
222 225 227 228 232 236 240 244 251 260 262 267 278 288 293 289 284 285 289 294 274 228 210 211 210 208 207 205 208 222 224 202 191 192 189 181 177 168 144 123 118 116 100 93 91 80 68 60 58 65 68 77 99 119 138 113 56 44 41 38 37 40 45 47 36 21 7 356 349 346 343 343 344 341 340 336 328 317 307 299 292 287 283 276 273
224 226 228 230 233 236 239 244 251 260 265 267 275 283 290 289 283 284 291 291 260 219 209 214 216 217 220 216 213 229 238 214 198 196 197 194 189 184 174 162 148 142 126 108 104 89 68 58 58 65 71 83 99 108 114 100 70 48 38 34 31 29 29 30 25 11 349 333 325 323 322 322 323 323 325 325 322 319 316 312 307 300 296 291 285
226 228 230 232 234 236 238 243 250 257 262 266 272 281 286 286 282 284 287 280 245 214 209 217 221 222 228 230 228 234 242 232 219 213 209 207 205 203 196 189 182 174 164 149 139 123 77 61 62 72 82 85 88 92 93 83 70 62 55 48 42 36 31 27 22 11 352 337 325 318 316 314 314 314 314 313 312 309 306 303 302 300 298 296 291
227 230 232 234 235 237 239 242 248 253 259 265 270 275 278 281 281 283 285 272 241 215 211 217 224 228 234 239 240 239 237 239 237 233 233 228 219 217 216 211 209 207 202 191 178 177 161 77 73 87 99 95 92 93 87 85 91 84 72 61 51 41 33 25 13 2 349 338 332 327 325 322 319 317 313 312 311 311 309 304 301 298 297 296 292
228 230 231 234 236 237 239 241 246 251 257 262 267 269 271 277 281 283 284 272 243 219 215 217 222 231 241 245 246 241 235 236 240 238 237 238 229 224 228 229 225 224 227 227 216 209 215 194 97 98 116 121 119 119 112 107 108 90 72 58 48 35 25 18 9 360 347 337 331 327 326 325 324 323 318 314 311 310 310 306 303 300 297 296 295
229 230 230 232 235 237 240 242 245 249 254 257 261 264 267 274 279 281 282 272 252 231 224 223 221 226 235 241 241 242 240 239 241 238 234 234 233 231 235 236 234 235 238 240 238 233 236 234 215 139 133 149 148 147 144 135 123 81 46 25 15 5 360 359 360 357 348 339 330 325 324 322 321 319 315 312 309 309 307 305 303 299 297 295 294
230 231 231 232 234 236 240 243 246 247 250 253 256 259 263 267 271 274 276 271 258 244 235 230 224 222 225 230 236 243 248 248 245 240 237 236 237 238 241 243 243 242 240 240 241 242 247 251 246 240 231 212 200 198 202 208 240 287 310 325 331 333 335 339 345 349 346 341 334 326 322 320 317 313 309 307 306 306 306 304 302 299 297 295 293
231 232 232 233 234 236 238 241 244 245 246 249 252 255 257 259 264 268 271 269 257 247 243 238 232 228 228 230 237 247 250 248 244 240 237 238 240 242 249 256 256 251 246 241 240 244 250 256 256 255 260 257 246 240 239 245 256 269 283 292 300 308 316 323 329 337 339 338 336 332 327 323 317 312 309 306 305 304 303 300 298 296 296 294 292
230 231 232 232 234 236 237 239 242 245 247 249 251 253 253 255 259 263 266 267 259 248 247 247 241 237 239 238 238 245 252 250 245 241 239 237 239 242 249 259 260 256 253 246 242 248 254 258 260 259 263 267 266 266 261 259 260 263 270 275 277 282 292 301 311 321 327 327 328 328 327 327 324 319 313 308 305 302 300 298 296 296 296 294 291
231 232 233 233 236 237 239 241 243 245 247 248 250 251 251 252 254 257 260 261 257 248 243 246 246 242 242 243 240 241 246 249 249 249 245 239 237 240 249 258 257 253 254 251 248 252 256 263 266 263 265 270 273 274 270 264 262 261 262 266 270 271 274 279 289 302 311 314 315 314 312 314 317 319 317 314 310 304 300 298 297 296 295 294 293
233 235 235 236 238 240 242 243 243 244 245 246 248 249 249 250 250 252 253 252 251 247 242 243 247 247 244 243 243 241 241 245 252 257 255 245 237 237 243 248 248 250 254 254 255 257 262 270 274 270 266 269 273 273 270 266 262 261 263 269 275 275 274 275 278 287 296 299 301 303 299 297 301 307 311 314 315 313 307 301 297 295 292 291 291
234 237 238 238 239 241 243 244 244 244 244 244 245 246 246 247 248 248 249 248 247 247 244 243 247 249 248 246 245 244 243 244 252 259 258 251 243 240 241 238 235 242 252 257 262 266 272 276 276 273 269 266 269 269 267 267 264 264 269 274 279 279 278 278 280 284 289 292 294 295 294 292 294 297 300 304 308 312 312 309 303 298 291 288 287
234 236 238 239 240 241 243 245 245 244 243 242 243 243 243 244 245 246 247 247 247 247 245 244 247 250 251 250 248 245 244 242 246 255 256 253 250 247 247 243 240 241 246 256 263 266 275 276 270 271 271 264 264 266 268 272 274 276 279 281 282 281 278 277 281 286 291 293 294 294 293 291 290 291 292 292 295 298 302 305 305 299 292 286 282
233 235 237 239 240 241 242 244 245 244 242 241 241 241 240 241 243 244 245 245 245 245 244 243 247 250 252 253 251 247 244 242 242 246 250 251 251 250 249 245 241 242 245 253 262 264 270 273 266 267 272 266 263 268 272 277 281 285 286 286 285 285 282 282 287 293 297 298 297 295 294 292 290 288 287 285 285 286 288 291 292 290 285 281 279
231 233 235 237 238 239 240 242 243 243 241 239 239 239 238 237 240 242 244 244 245 246 245 243 244 247 251 254 254 251 249 245 242 242 247 249 248 249 250 245 240 243 247 250 256 262 266 269 268 269 270 266 264 268 274 279 283 285 285 284 285 285 286 290 294 298 301 302 299 295 292 291 289 288 286 285 283 281 281 281 282 282 281 279 279
231 232 234 236 237 238 239 239 240 241 240 238 238 239 237 235 237 240 242 244 246 248 248 246 244 244 247 251 254 255 254 250 244 242 245 248 249 250 249 247 245 246 249 250 253 262 270 270 269 270 266 263 266 272 277 281 284 285 284 283 284 285 288 292 295 297 300 301 299 296 292 290 289 289 288 288 287 286 283 280 278 278 278 278 277
231 232 233 235 236 237 238 238 239 239 239 238 238 239 238 236 236 238 241 242 245 247 249 249 247 245 245 247 251 254 255 255 250 245 243 244 247 249 249 250 252 252 253 255 258 265 270 270 265 264 262 262 268 274 278 281 284 285 284 283 283 285 287 290 292 292 293 293 293 293 293 292 291 290 289 288 288 287 285 282 278 276 276 277 278
232 232 233 234 235 236 237 238 239 239 239 239 239 240 240 239 237 237 239 242 244 247 248 250 250 249 247 246 247 249 252 255 255 251 247 244 244 247 248 250 253 256 256 257 260 263 267 268 261 259 260 262 265 267 270 273 275 277 277 278 279 279 281 284 286 286 285 285 285 286 287 289 289 289 288 286 284 283 282 281 279 278 277 277 278
233 232 232 234 235 235 236 238 239 239 239 239 239 240 241 240 239 238 239 240 244 247 249 250 251 252 251 248 247 246 247 251 255 256 253 249 245 244 247 250 252 254 254 255 257 259 264 267 262 256 257 257 257 258 261 263 264 267 269 271 274 277 280 280 281 282 283 281 280 281 282 284 284 285 284 282 280 278 278 278 279 279 279 278 278
234 233 233 234 236 236 236 237 238 239 239 240 240 240 240 241 240 238 238 239 242 245 248 250 251 251 251 250 249 247 246 248 251 254 254 253 250 246 246 249 251 252 252 252 254 255 259 261 260 258 256 254 251 250 253 257 259 263 267 270 274 276 278 279 279 282 283 281 281 282 283 284 283 282 280 278 277 277 277 276 276 276 276 276 277
236 235 234 234 236 236 236 236 237 238 239 239 240 240 240 241 240 239 238 237 239 242 246 248 249 250 250 250 249 248 246 246 248 250 252 252 252 248 245 247 250 250 249 249 250 250 251 253 255 258 259 256 252 248 251 259 263 267 273 276 277 278 280 282 284 286 289 291 292 292 292 291 288 285 281 279 278 278 277 275 274 273 273 272 272
237 236 235 236 237 237 236 236 237 238 239 240 241 241 241 241 241 241 239 238 238 239 242 245 247 248 248 248 248 247 245 244 245 247 249 250 250 247 244 245 247 249 248 247 247 246 247 250 252 253 253 253 250 248 249 256 264 272 279 280 280 283 290 294 296 298 300 301 301 300 299 297 294 291 288 285 283 280 278 277 275 274 274 271 269
238 237 237 237 238 238 238 238 237 237 238 240 241 242 242 242 242 242 241 239 238 238 238 241 244 246 248 248 247 246 245 244 244 244 245 245 246 246 244 242 242 245 246 245 244 243 245 247 249 249 246 243 245 247 247 252 262 273 280 282 283 288 296 301 302 304 305 305 305 304 303 302 299 297 295 292 290 288 285 281 278 276 274 271 269
239 239 239 240 240 240 240 239 239 238 238 239 241 241 241 242 242 242 242 241 239 238 237 238 241 244 246 247 247 246 246 245 244 243 242 241 242 244 242 239 238 241 243 243 241 240 243 244 245 247 245 242 244 247 250 256 265 274 277 279 285 294 302 306 306 306 307 309 310 309 310 311 308 303 300 297 295 293 291 290 287 282 276 272 270
241 241 241 241 242 243 242 241 241 240 239 239 240 240 241 241 241 242 242 241 240 239 237 237 239 241 244 245 246 246 246 246 246 245 243 240 239 241 242 238 236 237 240 241 238 238 241 242 242 245 246 247 250 253 259 267 272 273 275 278 287 298 305 307 309 311 313 315 313 309 310 312 308 304 303 300 297 295 294 294 294 290 285 280 276
243 242 242 242 243 244 243 243 242 242 241 240 239 240 241 241 242 242 242 242 241 239 237 236 238 240 242 244 245 245 246 246 247 247 244 239 237 239 241 240 237 236 237 238 237 237 238 240 241 243 245 248 255 262 270 278 279 275 275 281 290 299 304 306 311 314 316 318 316 310 309 310 306 303 302 301 299 297 297 296 294 293 292 290 286
243 243 242 242 243 244 245 244 244 243 242 241 240 240 240 241 241 242 242 242 242 240 238 237 238 240 242 243 245 246 246 244 245 246 244 241 237 236 239 239 238 237 237 237 236 236 237 239 241 243 245 248 257 269 278 282 279 276 277 282 291 299 302 304 308 311 312 315 315 311 309 309 306 303 302 302 301 299 298 297 296 295 294 292 290
243 243 242 243 243 244 245 246 246 245 244 243 242 241 241 241 241 242 242 242 242 242 239 237 237 239 241 243 245 245 245 245 245 246 246 243 239 236 237 238 237 237 239 240 237 235 236 239 240 243 247 250 257 267 278 281 278 277 280 284 292 298 300 301 302 304 307 310 311 309 307 307 307 305 304 304 304 302 300 300 300 298 295 292 290
243 243 243 243 243 244 245 246 246 247 246 245 244 242 241 240 240 241 242 242 242 242 241 237 237 238 241 243 245 245 246 246 245 246 247 246 242 237 235 235 234 234 238 241 239 235 234 238 241 244 247 251 257 263 270 277 279 280 281 286 292 297 299 300 299 298 302 305 305 303 302 304 306 304 304 305 306 304 303 302 301 300 299 297 295
243 243 243 243 243 244 245 246 247 248 248 247 246 243 241 240 239 240 241 242 243 243 243 239 237 237 240 243 245 246 247 247 245 245 246 247 244 238 233 231 232 233 236 238 237 233 231 234 239 244 249 256 263 266 266 271 276 278 280 286 291 294 297 299 300 300 302 303 299 296 298 301 302 302 304 306 306 306 305 303 302 300 298 297 296
243 244 244 244 244 244 245 246 247 248 249 249 247 244 242 240 239 239 240 241 242 242 243 241 237 236 238 242 245 247 248 247 246 246 246 246 245 240 233 230 231 234 236 237 236 233 232 234 239 246 254 262 265 265 266 269 271 274 279 284 288 291 296 299 299 301 304 302 297 296 297 299 301 302 303 306 308 308 308 306 305 302 299 296 295
243 244 244 244 245 245 245 246 248 248 249 249 248 245 242 239 238 238 238 239 240 240 241 240 238 236 237 239 243 247 249 248 247 247 246 245 245 241 234 229 230 234 236 235 235 235 233 234 240 247 254 259 261 264 268 267 267 272 278 283 287 290 294 296 295 296 297 295 294 296 297 299 302 301 300 305 309 310 310 310 309 306 303 300 299
243 243 243 243 244 245 245 245 246 247 248 249 249 247 243 240 238 236 235 236 238 238 239 238 237 236 236 238 242 246 249 248 245 244 245 243 242 240 234 227 226 230 233 233 232 232 231 233 240 247 251 255 261 267 268 263 264 272 278 282 287 290 290 290 290 290 289 289 290 292 295 300 302 302 304 307 310 312 313 312 311 310 310 309 307
244 244 244 244 244 244 244 245 245 246 247 249 251 249 246 242 238 235 234 234 235 236 237 237 237 237 237 238 241 246 249 247 242 242 242 239 237 234 228 223 222 224 228 229 228 227 228 232 238 244 250 258 265 265 262 262 267 274 278 280 283 284 281 282 285 285 288 291 288 287 294 302 305 307 309 310 311 313 313 311 312 316 318 319 317
245 245 246 246 246 245 245 245 246 246 245 246 250 250 247 244 240 237 234 233 233 234 235 236 236 236 237 239 241 244 247 246 242 239 236 233 232 230 224 220 219 220 223 223 222 222 226 230 234 239 248 257 262 261 262 267 273 275 277 280 280 275 272 275 280 284 291 294 288 288 299 307 306 307 310 311 310 310 311 310 313 317 320 321 321